{"data":{"norad_id":53667,"intl_designator":"2022-105V","name":"STARLINK-4406","alt_names":[],"object_type":"PAYLOAD","status":"ACTIVE","operator":null,"country":"US","launch_date":"2022-08-31","launch_site_code":"AFWTR","launch_vehicle":null,"mission":null,"orbit_class":"UNKNOWN","rcs_meters":null,"size_class":null,"mass_kg":null,"dimensions":null,"purposes":["comms"],"wikipedia_slug":null,"has_3d_model":false,"image_url":null,"decayed_at":null,"tle_current":{"epoch":"2026-05-25T02:32:49.284672Z","epoch_age_seconds":69167,"freshness":"FRESH","line1":"1 53667U 22105V   26145.10612598 -.00141277  00000+0 -44545-2 0  9994","line2":"2 53667  97.6034  28.1482 0001830  67.1850 292.9585 15.33447881204901","mean_motion":15.33447881,"eccentricity":0.000183,"inclination_deg":97.6034,"raan_deg":28.1482,"arg_perigee_deg":67.185,"mean_anomaly_deg":292.9585,"bstar":-0.0044545,"rev_number":20490,"period_min":93.906028228422,"perigee_km":464.28221075922,"apogee_km":466.78699456579,"semimajor_km":6843.6716026625,"source":"CELESTRAK","updated_at":"2026-05-25T13:38:17.487953Z"}}}